Content
SEND FEEDBACK

Daily
Averages
Monthly
Summary
Canada

QUEBEC CITY, QUEBEC


Home > North America > Canada > Quebec
Elevation: 239 feet     Latitude: 46 48N     Longitude: 071 23W

WEATHER
 
SELECT A DAY
Number of Records: 196,977;   Date Range: 6/30/96 - 11/22/14
 
SHARE

PRINT THIS DATA

[ ← Previous Day ]
WEATHER ALMANAC - DECEMBER 25, 2013
[ Next Day → ]
[ °C ]   °F
Weather ElementAverageHighLow
Dewpoint-6.3 °F-1 °F (1:00 am)-12 °F (7:00 am)
Humidity72.7 %85 % (1:00 am)54 % (1:00 pm)
Barometer30.47 in30.55 in (5:00 pm)30.25 in (1:00 am)
Wind Speed7.7 mph16.1 mph (9:00 am)
Weather ElementAverage
Visibility19.8 mi
Wind DirectionSSW (203.2 °)

Weather ElementTotal
Precipitation---
Heating Degree Days66.5 (Base 65)
Averaged from 31 records on December 25, 2013
WEATHER CONDITIONS BREAKOUT
WIND DIRECTION BREAKOUT
WEATHER BY HOUR - DECEMBER 25, 2013
[ °C ]   °F
Local TimeTemperatureDewpointHumidityBarometerVisibilityWind DirectionWind SpeedGust SpeedPrecipitationEventsConditions
1:00 AM2.0 °F-1.0 °F81 %30.25 inWSW (250°)4.6 mph
1:00 AM1.4 °F-2.2 °F85 %30.26 in10.0 miSW (230°)8.1 mphSnowLight Snow Showers
2:00 AM1.4 °F-4.0 °F78 %30.29 in15.0 miSW (230°)6.9 mphPartly Cloudy
3:00 AM-0.4 °F-5.8 °F78 %30.33 in15.0 miWest (260°)5.8 mphPartly Cloudy
4:00 AM-7.0 °F-10.0 °F77 %30.33 inWSW (240°)4.6 mph
4:00 AM1.4 °F-4.0 °F78 %30.34 in15.0 miSW (220°)8.1 mphPartly Cloudy
5:00 AM-2.2 °F-7.6 °F78 %30.37 in15.0 miSW (230°)5.8 mphPartly Cloudy
6:00 AM-2.2 °F-7.6 °F78 %30.40 in15.0 miSW (230°)8.1 mphPartly Cloudy
7:00 AM-8.0 °F-12.0 °F76 %30.43 inWest (260°)4.6 mph
7:00 AM-2.2 °F-9.4 °F71 %30.43 in15.0 miSW (230°)8.1 mphPartly Cloudy
8:00 AM-4.0 °F-9.4 °F78 %30.47 in25.0 miSW (230°)10.4 mphPartly Cloudy
9:00 AM-0.4 °F-5.8 °F78 %30.51 in25.0 miSW (220°)16.1 mphPartly Cloudy
10:00 AM0.0 °F-3.0 °F81 %30.52 inWSW (240°)6.9 mph
10:00 AM-0.4 °F-5.8 °F78 %30.53 in25.0 miSW (220°)13.8 mphPartly Cloudy
11:00 AM1.4 °F-5.8 °F72 %30.52 in25.0 miSW (230°)16.1 mphPartly Cloudy
12:00 PM3.2 °F-5.8 °F66 %30.52 in25.0 miSW (220°)15.0 mphPartly Cloudy
1:00 PM4.0 °F-5.0 °F54 %30.53 inSW (230°)8.1 mph
1:00 PM3.2 °F-5.8 °F66 %30.53 in25.0 miSW (220°)12.7 mphPartly Cloudy
2:00 PM5.0 °F-5.8 °F61 %30.54 in25.0 miSW (220°)11.5 mphClear
3:00 PM3.2 °F-5.8 °F66 %30.53 in20.0 miSW (230°)10.4 mphPartly Cloudy
4:00 PM2.0 °F-6.0 °F57 %30.53 inWSW (240°)8.1 mph
4:00 PM1.4 °F-7.6 °F66 %30.53 in20.0 miWest (260°)11.5 mphMostly Cloudy
5:00 PM1.4 °F-5.8 °F72 %30.55 in20.0 miWSW (250°)11.5 mphMostly Cloudy
6:00 PM-0.4 °F-7.6 °F72 %30.55 in20.0 miWest (260°)6.9 mphScattered Clouds
7:00 PM-4.0 °F-9.0 °F69 %30.54 inWNW (300°)1.2 mph
7:00 PM-0.4 °F-7.6 °F72 %30.55 in20.0 miWest (270°)3.5 mphMostly Cloudy
8:00 PM-0.4 °F-7.6 °F72 %30.54 in20.0 miCalmOvercast
9:00 PM-0.4 °F-7.6 °F72 %30.53 in20.0 miNorth (10°)2.3 mphOvercast
10:00 PM0.0 °F-4.0 °F73 %30.52 inNorth (10°)1.2 mph
10:00 PM1.4 °F-5.8 °F72 %30.52 in20.0 miNNE (30°)3.5 mphMostly Cloudy
11:00 PM-0.4 °F-5.8 °F78 %30.50 in20.0 miNNE (30°)4.6 mphScattered Clouds
Hourly data recorded from CYQB, located miles away from Quebec City, Quebec







STORIES FROM OUR PARTNERS